Home   Weather   Mechelen   Past weeks
Flag for Belgium

Past Weather in Mechelen, Antwerp, Belgium — Yesterday and Last 2 Weeks

Now
55 °F

Clear.


Feels Like: 53 °F
Forecast: 58 / 52 °F
Wind: 8 mph from South

Location: Brussels National Airport

Current Time: Oct 18, 2019 at 6:57:08 am

Latest Report: Oct 18, 2019 at 5:50 am


Visibility: 10 mi

Pressure: 29.68 "Hg

Humidity: 88%

Dew Point: 52 °F

Location of MechelenLocation

Past Weather in Mechelen — Graph

°F

Mechelen Temperature Yesterday

Maximum temperature yesterday: 59 °F (at 12:20 pm)
Minimum temperature yesterday: 52 °F (at 8:20 pm)
Average temperature yesterday: 56 °F

High & Low Weather Summary for the Past Weeks

 TemperatureHumidityPressure
High75 °F (Oct 13, 2:50 pm)100% (Oct 4, 7:20 am)30.12 "Hg (Oct 4, 7:20 am)
Low45 °F (Oct 3, 8:20 am)11% (Oct 4, 9:20 am)29.62 "Hg (Oct 4, 9:20 am)
Average56 °F84%29.83 "Hg
* Reported Oct 3 5:20 am — Oct 18 5:20 am, Mechelen. Weather by CustomWeather, © 2019

Note: Actual official high and low records may vary slightly from our data, if they occured in-between our weather recording intervals... More about our weather records

Advertising

Mechelen Weather History for the Previous 24 Hours

Scroll right to see more
 ConditionsComfort  
Time TempWeatherWind HumidityBarometerVisibility
5:20 am
Fri, Oct 18
55 °FPassing clouds.7 mph88%29.68 "HgN/A
4:50 am55 °FClear.6 mph88%29.71 "Hg10 mi
4:20 am55 °FPassing clouds.8 mph88%29.71 "HgN/A
3:50 am55 °FScattered showers. Passing clouds.7 mph94%29.71 "HgN/A
3:20 am55 °FScattered showers. Passing clouds.9 mph94%29.74 "HgN/A
2:50 am55 °FScattered showers. Passing clouds.9 mph88%29.74 "HgN/A
2:20 am55 °FScattered showers. Passing clouds.8 mph88%29.74 "HgN/A
1:50 am55 °FPassing clouds.9 mph88%29.74 "HgN/A
1:20 am55 °FClear.10 mph88%29.77 "Hg10 mi
12:50 am55 °FPassing clouds.9 mph88%29.77 "HgN/A
12:20 am55 °FPassing clouds.9 mph94%29.77 "HgN/A
11:50 pm
Thu, Oct 17
55 °FClear.10 mph94%29.77 "Hg10 mi
11:20 pm54 °FClear.10 mph94%29.77 "Hg10 mi
10:20 pm54 °FClear.6 mph88%29.80 "Hg10 mi
9:50 pm54 °FClear.8 mph94%29.80 "Hg10 mi
9:20 pm54 °FClear.8 mph88%29.80 "Hg10 mi
8:50 pm52 °FClear.3 mph94%29.80 "Hg10 mi
8:20 pm52 °FClear.5 mph94%29.80 "Hg10 mi
7:50 pm54 °FClear.6 mph88%29.80 "Hg10 mi
7:20 pm54 °FClear.6 mph88%29.80 "Hg10 mi
6:50 pm55 °FClear.6 mph88%29.80 "Hg10 mi
6:20 pm57 °FSunny.6 mph82%29.80 "Hg10 mi
4:20 pm57 °FBroken clouds.5 mph88%29.80 "HgN/A
3:50 pm57 °FBroken clouds.6 mph88%29.80 "HgN/A
3:20 pm57 °FPartly sunny.7 mph88%29.80 "HgN/A
2:50 pm57 °FLight rain. Partly sunny.10 mph82%29.83 "Hg5 mi
2:20 pm59 °FBroken clouds.8 mph72%29.83 "HgN/A
1:50 pm59 °FPartly sunny.7 mph72%29.83 "HgN/A
1:20 pm59 °FScattered clouds.5 mph72%29.83 "HgN/A
12:50 pm59 °FPassing clouds.6 mph77%29.83 "HgN/A
12:20 pm59 °FPassing clouds.9 mph72%29.86 "HgN/A
11:50 am57 °FPassing clouds.8 mph77%29.86 "HgN/A
11:20 am57 °FPassing clouds.8 mph77%29.86 "HgN/A
10:50 am57 °FPassing clouds.8 mph82%29.86 "HgN/A
10:20 am55 °FPassing clouds.7 mph82%29.83 "HgN/A
9:50 am54 °FScattered clouds.7 mph94%29.83 "HgN/A
9:20 am54 °FClear.7 mph94%29.83 "Hg5 mi
8:50 am54 °FPartly sunny.6 mph88%29.83 "Hg5 mi
8:20 am54 °FBroken clouds.9 mph94%29.83 "Hg5 mi
7:50 am54 °FPassing clouds.6 mph94%29.80 "Hg4 mi
7:20 am54 °FPassing clouds.8 mph94%29.80 "HgN/A
6:50 am54 °FPassing clouds.8 mph94%29.80 "HgN/A
6:20 am55 °FPassing clouds.8 mph94%29.77 "HgN/A
Weather by CustomWeather, © 2019

See weather overview